Yankton, SD

1:06 PM CDT on June 28, 2017 (GMT -0500)
Gurney Municipal

Weather History for KYKN - December, 2011

Change the Weather History Date:

Tuesday, December 13, 2011

  Actual Average Record
Temperature  
Mean Temperature 28 °F -  
Max Temperature 33 °F 35 °F 55 °F (1957)
Min Temperature 24 °F 12 °F -15 °F (1956)
Degree Days  
Heating Degree Days 36    
Moisture  
Dew Point 25 °F    
Average Humidity 89    
Maximum Humidity 100    
Minimum Humidity 75    
Precipitation  
Precipitation 0.00 in - - ()
Sea Level Pressure  
Sea Level Pressure 30.22 in    
Wind  
Wind Speed 4 mph (ESE)    
Max Wind Speed 9 mph    
Max Gust Speed -    
Visibility 5 miles    
Events      
Averages and records for this station are not official NWS values.
T = Trace of Precipitation, MM = Missing Value Source: NWS Daily Summary

Daily Weather History Graph

Daily Weather History Graph

Search for Another Location

Airport or City:

Trip Planner

Search our weather history database for the weather conditions in past years. The results will help you decide how hot, cold, wet, or windy it might be!

Date:

Astronomy

Dec. 13, 2011 Rise Set
Actual Time 7:51 AM CST 4:55 PM CST
Civil Twilight 7:19 AM CST 5:27 PM CST
Nautical Twilight 6:43 AM CST 6:03 PM CST
Astronomical Twilight 6:09 AM CST 6:37 PM CST
Moon 8:14 PM CST (12/13) 10:00 AM CST (12/13)
Length of Visible Light 10h 07m
Length of Day
9h 03m
Waning Gibbous, 90% of the Moon is Illuminated
Dec 13
Waning Gibbous
Dec 17
Last Quarter
Dec 24
New
Jan 1
First Quarter
Jan 9
Full

Hourly Weather History & Observations

Time (CST) Temp. Windchill Dew Point Humidity Pressure Visibility Wind Dir Wind Speed Gust Speed Precip Events Conditions
12:15 AM 24.8 °F 19.1 °F 23.0 °F 93% 30.29 in 1.2 mi West 4.6 mph - N/A   Overcast
12:35 AM 24.8 °F 19.1 °F 23.0 °F 93% 30.29 in 1.5 mi West 4.6 mph - N/A   Overcast
12:55 AM 24.8 °F 16.9 °F 23.0 °F 93% 30.30 in 1.5 mi West 6.9 mph - N/A   Overcast
1:15 AM 24.8 °F 17.9 °F 23.0 °F 93% 30.29 in 1.8 mi West 5.8 mph - N/A   Overcast
1:35 AM 24.8 °F 17.9 °F 23.0 °F 93% 30.28 in 1.8 mi West 5.8 mph - N/A   Overcast
1:55 AM 24.8 °F 17.9 °F 23.0 °F 93% 30.28 in 2.0 mi West 5.8 mph - N/A   Overcast
2:15 AM 24.8 °F 16.9 °F 23.0 °F 93% 30.28 in 1.8 mi WNW 6.9 mph - N/A   Overcast
2:35 AM 24.8 °F 17.9 °F 23.0 °F 93% 30.27 in 2.0 mi WNW 5.8 mph - N/A   Overcast
2:55 AM 24.8 °F 19.1 °F 23.0 °F 93% 30.28 in 3.0 mi West 4.6 mph - N/A   Overcast
3:15 AM 24.8 °F 20.5 °F 23.0 °F 93% 30.27 in 4.0 mi West 3.5 mph - N/A   Overcast
3:35 AM 24.8 °F - 23.0 °F 93% 30.27 in 4.0 mi Calm Calm - N/A   Overcast
3:55 AM 24.8 °F 19.1 °F 23.0 °F 93% 30.29 in 5.0 mi WSW 4.6 mph - N/A   Overcast
4:35 AM 24.8 °F 20.5 °F 23.0 °F 93% 30.29 in 5.0 mi WSW 3.5 mph - N/A   Overcast
4:55 AM 24.8 °F - 23.0 °F 93% 30.27 in 5.0 mi Calm Calm - N/A   Overcast
5:15 AM 24.8 °F - 24.8 °F 100% 30.27 in 7.0 mi Calm Calm - N/A   Overcast
5:35 AM 24.8 °F - 23.0 °F 93% 30.27 in 6.0 mi Calm Calm - N/A   Overcast
5:55 AM 26.6 °F - 23.0 °F 86% 30.27 in 5.0 mi Calm Calm - N/A   Overcast
6:15 AM 26.6 °F - 23.0 °F 86% 30.26 in 3.0 mi Calm Calm - N/A   Overcast
6:35 AM 26.6 °F - 24.8 °F 93% 30.26 in 1.8 mi Calm Calm - N/A   Overcast
6:55 AM 26.6 °F 21.2 °F 24.8 °F 93% 30.26 in 3.0 mi SSE 4.6 mph - N/A   Overcast
7:15 AM 26.6 °F - 24.8 °F 93% 30.27 in 4.0 mi Calm Calm - N/A   Overcast
7:35 AM 26.6 °F 22.6 °F 23.0 °F 86% 30.28 in 5.0 mi SSW 3.5 mph - N/A   Overcast
7:55 AM 26.6 °F - 24.8 °F 93% 30.27 in 6.0 mi Calm Calm - N/A   Overcast
8:15 AM 26.6 °F - 24.8 °F 93% 30.27 in 5.0 mi Calm Calm - N/A   Overcast
8:35 AM 26.6 °F 22.6 °F 24.8 °F 93% 30.26 in 5.0 mi ESE 3.5 mph - N/A   Mostly Cloudy
8:55 AM 26.6 °F 21.2 °F 24.8 °F 93% 30.25 in 5.0 mi East 4.6 mph - N/A   Scattered Clouds
9:15 AM 26.6 °F 21.2 °F 24.8 °F 93% 30.25 in 7.0 mi East 4.6 mph - N/A   Mostly Cloudy
9:35 AM 26.6 °F 20.0 °F 24.8 °F 93% 30.25 in 9.0 mi ESE 5.8 mph - N/A   Overcast
9:55 AM 26.6 °F 20.0 °F 24.8 °F 93% 30.25 in 9.0 mi East 5.8 mph - N/A   Overcast
10:15 AM 28.4 °F 24.6 °F 24.8 °F 86% 30.26 in 10.0 mi SE 3.5 mph - N/A   Overcast
10:35 AM 28.4 °F 21.2 °F 24.8 °F 86% 30.26 in 10.0 mi SE 6.9 mph - N/A   Overcast
10:55 AM 28.4 °F 23.3 °F 24.8 °F 86% 30.24 in 10.0 mi SE 4.6 mph - N/A   Overcast
11:15 AM 28.4 °F 21.2 °F 24.8 °F 86% 30.24 in 10.0 mi SE 6.9 mph - N/A   Overcast
11:35 AM 30.2 °F 23.4 °F 24.8 °F 80% 30.22 in 10.0 mi SE 6.9 mph - N/A   Overcast
11:55 AM 30.2 °F 23.4 °F 24.8 °F 80% 30.22 in 10.0 mi SE 6.9 mph - N/A   Overcast
12:15 PM 30.2 °F 25.4 °F 24.8 °F 80% 30.20 in 10.0 mi East 4.6 mph - N/A   Overcast
12:35 PM 30.2 °F 23.4 °F 24.8 °F 80% 30.19 in 10.0 mi ESE 6.9 mph - N/A   Scattered Clouds
1:15 PM 32.0 °F 25.6 °F 26.6 °F 80% 30.16 in 10.0 mi East 6.9 mph - N/A   Overcast
1:35 PM 32.0 °F 26.4 °F 26.6 °F 80% 30.14 in 8.0 mi East 5.8 mph - N/A   Mostly Cloudy
1:55 PM 33.8 °F 27.7 °F 26.6 °F 75% 30.15 in 7.0 mi ESE 6.9 mph - N/A   Overcast
2:15 PM 33.8 °F 27.7 °F 26.6 °F 75% 30.13 in 7.0 mi East 6.9 mph - N/A   Overcast
2:35 PM 33.8 °F 29.6 °F 26.6 °F 75% 30.13 in 6.0 mi East 4.6 mph - N/A   Overcast
2:55 PM 33.8 °F 27.7 °F 26.6 °F 75% 30.13 in 5.0 mi East 6.9 mph - N/A   Overcast
3:15 PM 33.8 °F 28.6 °F 28.4 °F 81% 30.13 in 4.0 mi East 5.8 mph - N/A   Overcast
3:35 PM 32.0 °F 25.6 °F 28.4 °F 87% 30.12 in 3.0 mi East 6.9 mph - N/A   Mostly Cloudy
3:55 PM 32.0 °F 26.4 °F 28.4 °F 87% 30.12 in 3.0 mi East 5.8 mph - N/A   Partly Cloudy
4:15 PM 32.0 °F 26.4 °F 28.4 °F 87% 30.11 in 2.5 mi East 5.8 mph - N/A   Partly Cloudy
4:35 PM 32.0 °F 26.4 °F 28.4 °F 87% 30.11 in 2.5 mi East 5.8 mph - N/A   Mostly Cloudy
4:55 PM 33.8 °F - 30.2 °F 87% 30.12 in 3.0 mi Calm Calm - N/A   Overcast
5:15 PM 32.0 °F 25.6 °F 30.2 °F 93% 30.09 in 3.0 mi ENE 6.9 mph - N/A   Overcast
5:35 PM 32.0 °F 24.2 °F 30.2 °F 93% 30.06 in 2.5 mi East 9.2 mph - N/A   Overcast
5:55 PM 32.0 °F 25.6 °F 30.2 °F 93% 30.07 in 2.5 mi East 6.9 mph - N/A   Overcast
6:15 PM 32.0 °F 24.2 °F 30.2 °F 93% 30.07 in 2.0 mi East 9.2 mph - N/A   Overcast
6:35 PM 32.0 °F 24.2 °F 30.2 °F 93% 30.05 in 2.0 mi East 9.2 mph - N/A   Overcast
6:55 PM 33.8 °F 28.6 °F 30.2 °F 87% 30.06 in 2.0 mi East 5.8 mph - N/A   Overcast
7:35 PM 33.8 °F 29.6 °F 30.2 °F 87% 30.08 in 2.0 mi ESE 4.6 mph - N/A   Overcast
7:55 PM 33.8 °F 28.6 °F 30.2 °F 87% 30.05 in 1.8 mi East 5.8 mph - N/A   Overcast
8:15 PM 33.8 °F 29.6 °F 30.2 °F 87% 30.04 in 1.5 mi East 4.6 mph - N/A   Overcast
8:35 PM 33.8 °F 28.6 °F 32.0 °F 93% 30.03 in 0.8 mi ENE 5.8 mph - N/A   Overcast
8:55 PM 33.8 °F 29.6 °F 32.0 °F 93% 30.03 in 0.8 mi East 4.6 mph - N/A   Overcast
9:15 PM 33.8 °F 29.6 °F 32.0 °F 93% 30.03 in 0.5 mi East 4.6 mph - N/A   Overcast
9:35 PM 33.8 °F 29.6 °F 32.0 °F 93% 30.02 in 0.2 mi East 4.6 mph - N/A   Overcast
9:55 PM 33.8 °F 30.8 °F 33.8 °F 100% 30.02 in 0.2 mi East 3.5 mph - N/A   Overcast
10:15 PM 33.8 °F 30.8 °F 33.8 °F 100% 30.01 in 0.2 mi East 3.5 mph - N/A   Overcast
10:35 PM 33.8 °F 30.8 °F 33.8 °F 100% 29.98 in 0.2 mi ENE 3.5 mph - 0.01 in   Overcast
10:55 PM 35.6 °F 30.7 °F 33.8 °F 93% 29.98 in 0.2 mi East 5.8 mph - 0.01 in   Overcast
11:15 PM 33.8 °F 28.6 °F 33.8 °F 100% 29.97 in 0.2 mi East 5.8 mph - N/A   Overcast
11:35 PM 33.8 °F 29.6 °F 33.8 °F 100% 29.95 in 0.2 mi East 4.6 mph - N/A   Overcast
11:55 PM 35.6 °F 29.9 °F 33.8 °F 93% 29.96 in 0.2 mi ESE 6.9 mph - N/A   Overcast